[ hide orbit diagram ]
For accurate long-term ephemerides, please instead use our Horizons system.This orbit viewer was implemented using two-body methods, and hence should not be used for determining accurate long-term trajectories (over several years or decades) or planetary encounter circumstances.
[ revert to old Java-based viewer ]
Orbital Elements at Epoch 2458600.5 (2019-Apr-27.0) TDB
Reference: JPL 9 (heliocentric ecliptic J2000)
Element | Value | Uncertainty (1-sigma) | Units |
e | .08776421440503487 | 4.6931e-08 | |
a | 3.014743644268441 | 3.0591e-08 | au |
q | 2.750157036696649 | 1.4274e-07 | au |
i | 7.677410834089087 | 6.3956e-06 | deg |
node | 325.3633738449918 | 4.0787e-05 | deg |
peri | 116.7352740210125 | 5.8215e-05 | deg |
M | 117.0174688068313 | 3.9571e-05 | deg |
tp | 2457979.027081884605 (2017-Aug-13.52708188) | 0.00020932 | TDB |
period | 1911.93889940372 5.23 | 2.9101e-05 7.967e-08 | d yr |
n | .1882905359121433 | 2.8659e-09 | deg/d |
Q | 3.279330251840233 | 3.3276e-08 | au |
|
| | Orbit Determination Parameters
Additional Information
|
[ show covariance matrix ]
Physical Parameter Table
Parameter |
Symbol |
Value |
Units |
Sigma |
Reference |
Notes |
absolute magnitude |
H |
15.9 |
|
n/a |
MPO437356 |
|
|
305430 (2008 CS150) Discovered 2008-Feb-09 by Spacewatch at Kitt Peak |
Reference: 20111110/Numbers.arc | Last Updated: 2011-11-14 |
|
[ show close-approach data ]
|